This is the latest recevied weather packets stored in our database for station/object W3TMB. If no packets are shown the sender has not sent any weather packets the latest 10 day(s).
| Time | Temp. | Humidity | Pressure | Rain* | Wind** | Luminosity | Snow |
|---|---|---|---|---|---|---|---|
| 1778111119 | 12.22° C | 90% | 1008 hPa | 0 mm | - | 1 W/m² | - |
| 1778110817 | 12.22° C | 90% | 1007.9 hPa | 0 mm | - | 3 W/m² | - |
| 1778110513 | 12.22° C | 90% | 1008 hPa | 0 mm | - | 2 W/m² | - |
| 1778110210 | 12.22° C | 90% | 1008 hPa | 0 mm | - | 2 W/m² | - |
| 1778109906 | 12.22° C | 89% | 1007.7 hPa | 0 mm | - | 3 W/m² | - |
| 1778109601 | 12.22° C | 89% | 1007.5 hPa | 0 mm | - | 5 W/m² | - |
| 1778109299 | 12.22° C | 89% | 1007.6 hPa | 0 mm | - | 4 W/m² | - |
| 1778108997 | 12.22° C | 89% | 1007.8 hPa | 0 mm | - | 5 W/m² | - |
| 1778108693 | 12.22° C | 89% | 1007.7 hPa | 0 mm | - | 6 W/m² | - |
| 1778108390 | 12.22° C | 89% | 1007.7 hPa | 0 mm | - | 7 W/m² | - |
| 1778108087 | 12.78° C | 89% | 1007.5 hPa | 0 mm | - | 9 W/m² | - |
| 1778107783 | 12.78° C | 89% | 1007.6 hPa | 0 mm | - | 12 W/m² | - |
| 1778107481 | 12.78° C | 89% | 1007.4 hPa | 0 mm | - | 22 W/m² | - |
| 1778107177 | 12.78° C | 88% | 1007.3 hPa | 0 mm | - | 29 W/m² | - |
| 1778106873 | 12.78° C | 88% | 1007.2 hPa | 0 mm | - | 33 W/m² | - |
| 1778106570 | 12.78° C | 88% | 1007.2 hPa | 0 mm | - | 26 W/m² | - |
| 1778106266 | 12.78° C | 88% | 1007.2 hPa | 0 mm | - | 20 W/m² | - |
| 1778105963 | 12.78° C | 88% | 1007.4 hPa | 0 mm | - | 16 W/m² | - |
| 1778105660 | 12.78° C | 88% | 1007.4 hPa | 0 mm | - | 16 W/m² | - |
| 1778105359 | 12.78° C | 88% | 1007.4 hPa | 0 mm | - | 18 W/m² | - |
| 1778105054 | 12.78° C | 88% | 1007.3 hPa | 0 mm | - | 19 W/m² | - |
| 1778104750 | 12.78° C | 87% | 1007.3 hPa | 0 mm | - | 17 W/m² | - |
| 1778104447 | 12.78° C | 87% | 1007 hPa | 0 mm | - | 12 W/m² | - |
| 1778104143 | 12.78° C | 87% | 1007.3 hPa | 0 mm | - | 12 W/m² | - |
| 1778103840 | 13.33° C | 87% | 1006.7 hPa | 0 mm | - | 14 W/m² | - |
* Rain latest hour (hover to see other rain measurements)
** Current wind speed in m/s (hover to see current wind gust speed)